2017-080A

Last updated on Sun Dec 17 2017 00:15:04 GMT+0000 (Coordinated Universal Time)

1 43060U 17080A 17350.83590341 -.11560297 00000-0 -11516+0 0 9994 2 43060 51.7606 208.0863 0119168 165.4461 147.6831 15.61362301 198

Satellite not in orbit